Year,Month,Day,Hour,Minute,Value (Times are PST for windgust in km/hr)
2017,11,26,00,00,16.10
2017,11,26,00,01,16.10
2017,11,26,00,02,19.30
2017,11,26,00,03,17.70
2017,11,26,00,04,24.20
2017,11,26,00,05,22.50
2017,11,26,00,06,24.20
2017,11,26,00,07,24.20
2017,11,26,00,08,24.20
2017,11,26,00,09,25.70
2017,11,26,00,10,24.20
2017,11,26,00,11,25.70
2017,11,26,00,12,24.20
2017,11,26,00,13,22.50
2017,11,26,00,14,24.20
2017,11,26,00,15,25.70
2017,11,26,00,16,29.00
2017,11,26,00,17,24.20
2017,11,26,00,18,19.30
2017,11,26,00,19,25.70
2017,11,26,00,20,27.40
2017,11,26,00,21,25.70
2017,11,26,00,22,27.40
2017,11,26,00,23,22.50
2017,11,26,00,24,22.50
2017,11,26,00,25,29.00
2017,11,26,00,26,25.70
2017,11,26,00,27,22.50
2017,11,26,00,28,29.00
2017,11,26,00,29,27.40
2017,11,26,00,30,27.40
2017,11,26,00,31,22.50
2017,11,26,00,32,27.40
2017,11,26,00,33,27.40
2017,11,26,00,34,27.40
2017,11,26,00,35,25.70
2017,11,26,00,36,20.90
2017,11,26,00,37,20.90
2017,11,26,00,38,24.20
2017,11,26,00,39,22.50
2017,11,26,00,40,22.50
2017,11,26,00,41,17.70
2017,11,26,00,42,17.70
2017,11,26,00,43,19.30
2017,11,26,00,44,19.30
2017,11,26,00,45,16.10
2017,11,26,00,46,17.70
2017,11,26,00,47,20.90
2017,11,26,00,48,20.90
2017,11,26,00,49,16.10
2017,11,26,00,50,17.70
2017,11,26,00,51,12.90
2017,11,26,00,52,6.40
2017,11,26,00,53,4.80
2017,11,26,00,54,8.10
2017,11,26,00,55,8.10
2017,11,26,00,56,14.50
2017,11,26,00,57,14.50
2017,11,26,00,58,17.70
2017,11,26,00,59,17.70
2017,11,26,01,00,16.10
2017,11,26,01,01,12.90
2017,11,26,01,02,12.90
2017,11,26,01,03,9.60
2017,11,26,01,04,9.60
2017,11,26,01,05,9.60
2017,11,26,01,06,9.60
2017,11,26,01,07,19.30
2017,11,26,01,08,19.30
2017,11,26,01,09,16.10
2017,11,26,01,10,6.40
2017,11,26,01,11,16.10
2017,11,26,01,12,14.50
2017,11,26,01,13,8.10
2017,11,26,01,14,12.90
2017,11,26,01,15,6.40
2017,11,26,01,16,4.80
2017,11,26,01,17,4.80
2017,11,26,01,18,3.20
2017,11,26,01,19,3.20
2017,11,26,01,20,1.60
2017,11,26,01,21,3.20
2017,11,26,01,22,6.40
2017,11,26,01,23,8.10
2017,11,26,01,26,1.60
2017,11,26,01,27,1.60
2017,11,26,01,28,1.60
2017,11,26,01,29,1.60
2017,11,26,01,30,4.80
2017,11,26,01,31,4.80
2017,11,26,01,32,4.80
2017,11,26,01,33,3.20
2017,11,26,01,34,3.20
2017,11,26,01,35,4.80
2017,11,26,01,36,4.80
2017,11,26,01,37,3.20
2017,11,26,01,42,3.20
2017,11,26,01,43,3.20
2017,11,26,01,44,1.60
2017,11,26,01,45,3.20
2017,11,26,01,46,3.20
2017,11,26,01,47,1.60
2017,11,26,01,48,6.40
2017,11,26,01,49,8.10
2017,11,26,01,50,8.10
2017,11,26,01,51,8.10
2017,11,26,01,52,9.60
2017,11,26,01,53,8.10
2017,11,26,01,54,6.40
2017,11,26,01,55,6.40
2017,11,26,01,56,8.10
2017,11,26,01,57,11.30
2017,11,26,01,58,16.10
2017,11,26,01,59,12.90
2017,11,26,02,00,12.90
2017,11,26,02,01,17.70
2017,11,26,02,02,17.70
2017,11,26,02,03,14.50
2017,11,26,02,04,16.10
2017,11,26,02,05,14.50
2017,11,26,02,06,20.90
2017,11,26,02,07,14.50
2017,11,26,02,08,16.10
2017,11,26,02,09,16.10
2017,11,26,02,10,16.10
2017,11,26,02,11,19.30
2017,11,26,02,12,20.90
2017,11,26,02,13,17.70
2017,11,26,02,14,16.10
2017,11,26,02,15,20.90
2017,11,26,02,16,22.50
2017,11,26,02,17,19.30
2017,11,26,02,18,17.70
2017,11,26,02,19,19.30
2017,11,26,02,20,19.30
2017,11,26,02,21,14.50
2017,11,26,02,22,9.60
2017,11,26,02,23,11.30
2017,11,26,02,24,11.30
2017,11,26,02,25,16.10
2017,11,26,02,26,20.90
2017,11,26,02,27,20.90
2017,11,26,02,28,16.10
2017,11,26,02,29,14.50
2017,11,26,02,30,19.30
2017,11,26,02,31,17.70
2017,11,26,02,32,20.90
2017,11,26,02,33,19.30
2017,11,26,02,34,16.10
2017,11,26,02,35,14.50
2017,11,26,02,36,9.60
2017,11,26,02,37,12.90
2017,11,26,02,38,9.60
2017,11,26,02,39,9.60
2017,11,26,02,40,12.90
2017,11,26,02,41,12.90
2017,11,26,02,42,14.50
2017,11,26,02,43,14.50
2017,11,26,02,44,17.70
2017,11,26,02,45,16.10
2017,11,26,02,46,17.70
2017,11,26,02,47,16.10
2017,11,26,02,48,19.30
2017,11,26,02,49,16.10
2017,11,26,02,50,19.30
2017,11,26,02,51,17.70
2017,11,26,02,52,14.50
2017,11,26,02,53,16.10
2017,11,26,02,54,14.50
2017,11,26,02,55,11.30
2017,11,26,02,56,11.30
2017,11,26,02,57,8.10
2017,11,26,02,58,12.90
2017,11,26,02,59,17.70
2017,11,26,03,00,19.30
2017,11,26,03,01,17.70
2017,11,26,03,02,20.90
2017,11,26,03,03,22.50
2017,11,26,03,04,22.50
2017,11,26,03,05,16.10
2017,11,26,03,06,14.50
2017,11,26,03,07,14.50
2017,11,26,03,08,17.70
2017,11,26,03,09,16.10
2017,11,26,03,10,16.10
2017,11,26,03,11,14.50
2017,11,26,03,12,14.50
2017,11,26,03,13,12.90
2017,11,26,03,14,8.10
2017,11,26,03,15,8.10
2017,11,26,03,16,6.40
2017,11,26,03,17,8.10
2017,11,26,03,18,9.60
2017,11,26,03,19,8.10
2017,11,26,03,20,6.40
2017,11,26,03,21,4.80
2017,11,26,03,22,3.20
2017,11,26,03,23,9.60
2017,11,26,03,24,14.50
2017,11,26,03,25,14.50
2017,11,26,03,26,16.10
2017,11,26,03,27,16.10
2017,11,26,03,28,24.20
2017,11,26,03,29,27.40
2017,11,26,03,30,27.40
2017,11,26,03,31,20.90
2017,11,26,03,32,17.70
2017,11,26,03,33,14.50
2017,11,26,03,34,11.30
2017,11,26,03,35,14.50
2017,11,26,03,36,14.50
2017,11,26,03,37,12.90
2017,11,26,03,38,8.10
2017,11,26,03,39,14.50
2017,11,26,03,40,16.10
2017,11,26,03,41,19.30
2017,11,26,03,42,20.90
2017,11,26,03,43,19.30
2017,11,26,03,44,19.30
2017,11,26,03,45,14.50
2017,11,26,03,46,12.90
2017,11,26,03,47,12.90
2017,11,26,03,48,16.10
2017,11,26,03,49,17.70
2017,11,26,03,50,12.90
2017,11,26,03,51,17.70
2017,11,26,03,52,14.50
2017,11,26,03,53,14.50
2017,11,26,03,54,19.30
2017,11,26,03,55,20.90
2017,11,26,03,56,19.30
2017,11,26,03,57,17.70
2017,11,26,03,58,14.50
2017,11,26,03,59,19.30
2017,11,26,04,00,16.10
2017,11,26,04,01,17.70
2017,11,26,04,02,17.70
2017,11,26,04,03,17.70
2017,11,26,04,04,16.10
2017,11,26,04,05,16.10
2017,11,26,04,06,16.10
2017,11,26,04,07,12.90
2017,11,26,04,08,14.50
2017,11,26,04,09,9.60
2017,11,26,04,10,12.90
2017,11,26,04,11,12.90
2017,11,26,04,12,14.50
2017,11,26,04,13,6.40
2017,11,26,04,14,4.80
2017,11,26,04,15,4.80
2017,11,26,04,16,6.40
2017,11,26,04,17,6.40
2017,11,26,04,18,6.40
2017,11,26,04,19,1.60
2017,11,26,04,20,3.20
2017,11,26,04,21,6.40
2017,11,26,04,22,6.40
2017,11,26,04,23,11.30
2017,11,26,04,24,8.10
2017,11,26,04,25,12.90
2017,11,26,04,26,12.90
2017,11,26,04,27,11.30
2017,11,26,04,28,12.90
2017,11,26,04,29,12.90
2017,11,26,04,30,12.90
2017,11,26,04,31,12.90
2017,11,26,04,32,12.90
2017,11,26,04,33,14.50
2017,11,26,04,34,16.10
2017,11,26,04,35,14.50
2017,11,26,04,36,12.90
2017,11,26,04,37,12.90
2017,11,26,04,38,12.90
2017,11,26,04,39,12.90
2017,11,26,04,40,16.10
2017,11,26,04,41,14.50
2017,11,26,04,42,17.70
2017,11,26,04,43,16.10
2017,11,26,04,44,16.10
2017,11,26,04,45,19.30
2017,11,26,04,46,16.10
2017,11,26,04,47,12.90
2017,11,26,04,48,14.50
2017,11,26,04,49,14.50
2017,11,26,04,50,16.10
2017,11,26,04,51,14.50
2017,11,26,04,52,9.60
2017,11,26,04,53,12.90
2017,11,26,04,54,12.90
2017,11,26,04,55,12.90
2017,11,26,04,56,12.90
2017,11,26,04,57,12.90
2017,11,26,04,58,16.10
2017,11,26,04,59,14.50
2017,11,26,05,00,16.10
2017,11,26,05,01,19.30
2017,11,26,05,02,17.70
2017,11,26,05,03,16.10
2017,11,26,05,04,16.10
2017,11,26,05,05,16.10
2017,11,26,05,06,16.10
2017,11,26,05,07,16.10
2017,11,26,05,08,16.10
2017,11,26,05,09,14.50
2017,11,26,05,10,14.50
2017,11,26,05,11,12.90
2017,11,26,05,12,12.90
2017,11,26,05,13,14.50
2017,11,26,05,14,14.50
2017,11,26,05,15,12.90
2017,11,26,05,16,12.90
2017,11,26,05,17,16.10
2017,11,26,05,18,11.30
2017,11,26,05,19,11.30
2017,11,26,05,20,11.30
2017,11,26,05,21,12.90
2017,11,26,05,22,12.90
2017,11,26,05,23,12.90
2017,11,26,05,24,14.50
2017,11,26,05,25,12.90
2017,11,26,05,26,14.50
2017,11,26,05,27,14.50
2017,11,26,05,28,14.50
2017,11,26,05,29,8.10
2017,11,26,05,30,8.10
2017,11,26,05,31,3.20
2017,11,26,05,32,6.40
2017,11,26,05,33,4.80
2017,11,26,05,34,8.10
2017,11,26,05,35,6.40
2017,11,26,05,36,4.80
2017,11,26,05,37,4.80
2017,11,26,05,38,4.80
2017,11,26,05,39,8.10
2017,11,26,05,40,8.10
2017,11,26,05,41,6.40
2017,11,26,05,42,8.10
2017,11,26,05,43,8.10
2017,11,26,05,44,9.60
2017,11,26,05,45,11.30
2017,11,26,05,46,8.10
2017,11,26,05,47,11.30
2017,11,26,05,48,12.90
2017,11,26,05,49,14.50
2017,11,26,05,50,16.10
2017,11,26,05,51,14.50
2017,11,26,05,52,11.30
2017,11,26,05,53,16.10
2017,11,26,05,54,11.30
2017,11,26,05,55,9.60
2017,11,26,05,56,12.90
2017,11,26,05,57,8.10
2017,11,26,05,58,14.50
2017,11,26,05,59,14.50
2017,11,26,06,00,20.90
2017,11,26,06,01,24.20
2017,11,26,06,02,27.40
2017,11,26,06,03,29.00
2017,11,26,06,04,30.60
2017,11,26,06,05,32.20
2017,11,26,06,06,33.80
2017,11,26,06,07,33.80
2017,11,26,06,08,33.80
2017,11,26,06,09,38.60
2017,11,26,06,10,37.00
2017,11,26,06,11,37.00
2017,11,26,06,12,35.40
2017,11,26,06,13,35.40
2017,11,26,06,14,29.00
2017,11,26,06,15,30.60
2017,11,26,06,16,30.60
2017,11,26,06,17,38.60
2017,11,26,06,18,40.20
2017,11,26,06,19,35.40
2017,11,26,06,20,38.60
2017,11,26,06,21,41.80
2017,11,26,06,22,37.00
2017,11,26,06,23,38.60
2017,11,26,06,24,38.60
2017,11,26,06,25,54.70
2017,11,26,06,26,41.80
2017,11,26,06,27,43.50
2017,11,26,06,28,43.50
2017,11,26,06,29,35.40
2017,11,26,06,30,38.60
2017,11,26,06,31,38.60
2017,11,26,06,32,40.20
2017,11,26,06,33,46.70
2017,11,26,06,34,43.50
2017,11,26,06,35,45.10
2017,11,26,06,36,40.20
2017,11,26,06,37,41.80
2017,11,26,06,38,45.10
2017,11,26,06,39,43.50
2017,11,26,06,40,46.70
2017,11,26,06,41,48.30
2017,11,26,06,42,48.30
2017,11,26,06,43,48.30
2017,11,26,06,44,48.30
2017,11,26,06,45,38.60
2017,11,26,06,46,38.60
2017,11,26,06,47,45.10
2017,11,26,06,48,43.50
2017,11,26,06,49,41.80
2017,11,26,06,50,38.60
2017,11,26,06,51,35.40
2017,11,26,06,52,40.20
2017,11,26,06,53,45.10
2017,11,26,06,54,43.50
2017,11,26,06,55,43.50
2017,11,26,06,56,40.20
2017,11,26,06,57,43.50
2017,11,26,06,58,41.80
2017,11,26,06,59,48.30
2017,11,26,07,00,46.70
2017,11,26,07,01,40.20
2017,11,26,07,02,43.50
2017,11,26,07,03,46.70
2017,11,26,07,04,51.50
2017,11,26,07,05,46.70
2017,11,26,07,06,46.70
2017,11,26,07,07,46.70
2017,11,26,07,08,51.50
2017,11,26,07,09,46.70
2017,11,26,07,10,46.70
2017,11,26,07,11,53.10
2017,11,26,07,12,41.80
2017,11,26,07,13,41.80
2017,11,26,07,14,48.30
2017,11,26,07,15,45.10
2017,11,26,07,16,48.30
2017,11,26,07,17,49.90
2017,11,26,07,18,48.30
2017,11,26,07,19,49.90
2017,11,26,07,20,46.70
2017,11,26,07,21,41.80
2017,11,26,07,22,43.50
2017,11,26,07,23,48.30
2017,11,26,07,24,43.50
2017,11,26,07,25,43.50
2017,11,26,07,26,46.70
2017,11,26,07,27,40.20
2017,11,26,07,28,43.50
2017,11,26,07,29,40.20
2017,11,26,07,30,41.80
2017,11,26,07,31,43.50
2017,11,26,07,32,43.50
2017,11,26,07,33,38.60
2017,11,26,07,34,37.00
2017,11,26,07,35,45.10
2017,11,26,07,36,41.80
2017,11,26,07,37,38.60
2017,11,26,07,38,41.80
2017,11,26,07,39,38.60
2017,11,26,07,40,35.40
2017,11,26,07,41,38.60
2017,11,26,07,42,37.00
2017,11,26,07,43,48.30
2017,11,26,07,44,43.50
2017,11,26,07,45,45.10
2017,11,26,07,46,35.40
2017,11,26,07,47,37.00
2017,11,26,07,48,41.80
2017,11,26,07,49,38.60
2017,11,26,07,50,37.00
2017,11,26,07,51,43.50
2017,11,26,07,52,41.80
2017,11,26,07,53,40.20
2017,11,26,07,54,41.80
2017,11,26,07,55,40.20
2017,11,26,07,56,40.20
2017,11,26,07,57,40.20
2017,11,26,07,58,35.40
2017,11,26,07,59,38.60
2017,11,26,08,00,41.80
2017,11,26,08,01,41.80
2017,11,26,08,02,38.60
2017,11,26,08,03,41.80
2017,11,26,08,04,40.20
2017,11,26,08,05,41.80
2017,11,26,08,06,41.80
2017,11,26,08,07,45.10
2017,11,26,08,08,40.20
2017,11,26,08,09,43.50
2017,11,26,08,10,45.10
2017,11,26,08,11,41.80
2017,11,26,08,12,45.10
2017,11,26,08,13,40.20
2017,11,26,08,14,40.20
2017,11,26,08,15,41.80
2017,11,26,08,16,43.50
2017,11,26,08,17,40.20
2017,11,26,08,18,41.80
2017,11,26,08,19,41.80
2017,11,26,08,20,41.80
2017,11,26,08,21,41.80
2017,11,26,08,22,46.70
2017,11,26,08,23,38.60
2017,11,26,08,24,49.90
2017,11,26,08,25,46.70
2017,11,26,08,26,43.50
2017,11,26,08,27,43.50
2017,11,26,08,28,49.90
2017,11,26,08,29,48.30
2017,11,26,08,30,51.50
2017,11,26,08,31,48.30
2017,11,26,08,32,45.10
2017,11,26,08,33,45.10
2017,11,26,08,34,45.10
2017,11,26,08,35,45.10
2017,11,26,08,36,46.70
2017,11,26,08,37,48.30
2017,11,26,08,38,41.80
2017,11,26,08,39,48.30
2017,11,26,08,40,46.70
2017,11,26,08,41,46.70
2017,11,26,08,42,48.30
2017,11,26,08,43,43.50
2017,11,26,08,44,49.90
2017,11,26,08,45,53.10
2017,11,26,08,46,48.30
2017,11,26,08,47,40.20
2017,11,26,08,48,43.50
2017,11,26,08,49,41.80
2017,11,26,08,50,46.70
2017,11,26,08,51,46.70
2017,11,26,08,52,48.30
2017,11,26,08,53,48.30
2017,11,26,08,54,43.50
2017,11,26,08,55,40.20
2017,11,26,08,56,41.80
2017,11,26,08,57,46.70
2017,11,26,08,58,43.50
2017,11,26,08,59,45.10
2017,11,26,09,00,46.70
2017,11,26,09,01,37.00
2017,11,26,09,02,46.70
2017,11,26,09,03,45.10
2017,11,26,09,04,49.90
2017,11,26,09,05,49.90
2017,11,26,09,06,51.50
2017,11,26,09,07,48.30
2017,11,26,09,08,53.10
2017,11,26,09,09,53.10
2017,11,26,09,10,48.30
2017,11,26,09,11,53.10
2017,11,26,09,12,54.70
2017,11,26,09,13,51.50
2017,11,26,09,14,51.50
2017,11,26,09,15,54.70
2017,11,26,09,16,54.70
2017,11,26,09,17,54.70
2017,11,26,09,18,54.70
2017,11,26,09,19,45.10
2017,11,26,09,20,43.50
2017,11,26,09,21,48.30
2017,11,26,09,22,49.90
2017,11,26,09,23,48.30
2017,11,26,09,24,46.70
2017,11,26,09,25,48.30
2017,11,26,09,26,46.70
2017,11,26,09,27,43.50
2017,11,26,09,28,45.10
2017,11,26,09,29,46.70
2017,11,26,09,30,41.80
2017,11,26,09,31,41.80
2017,11,26,09,32,49.90
2017,11,26,09,33,43.50
2017,11,26,09,34,46.70
2017,11,26,09,35,46.70
2017,11,26,09,36,54.70
2017,11,26,09,37,48.30
2017,11,26,09,38,51.50
2017,11,26,09,39,49.90
2017,11,26,09,40,51.50
2017,11,26,09,41,45.10
2017,11,26,09,42,49.90
2017,11,26,09,43,53.10
2017,11,26,09,44,48.30
2017,11,26,09,45,49.90
2017,11,26,09,46,49.90
2017,11,26,09,47,51.50
2017,11,26,09,48,46.70
2017,11,26,09,49,54.70
2017,11,26,09,50,54.70
2017,11,26,09,51,53.10
2017,11,26,09,52,51.50
2017,11,26,09,53,49.90
2017,11,26,09,54,53.10
2017,11,26,09,55,49.90
2017,11,26,09,56,51.50
2017,11,26,09,57,53.10
2017,11,26,09,58,56.30
2017,11,26,09,59,49.90
2017,11,26,10,00,56.30
2017,11,26,10,01,54.70
2017,11,26,10,02,51.50
2017,11,26,10,03,48.30
2017,11,26,10,04,53.10
2017,11,26,10,05,51.50
2017,11,26,10,06,51.50
2017,11,26,10,07,53.10
2017,11,26,10,08,48.30
2017,11,26,10,09,49.90
2017,11,26,10,10,49.90
2017,11,26,10,11,46.70
2017,11,26,10,12,46.70
2017,11,26,10,13,49.90
2017,11,26,10,14,57.90
2017,11,26,10,15,49.90
2017,11,26,10,16,51.50
2017,11,26,10,17,54.70
2017,11,26,10,18,51.50
2017,11,26,10,19,51.50
2017,11,26,10,20,53.10
2017,11,26,10,21,49.90
2017,11,26,10,22,49.90
2017,11,26,10,23,49.90
2017,11,26,10,24,51.50
2017,11,26,10,25,46.70
2017,11,26,10,26,46.70
2017,11,26,10,27,51.50
2017,11,26,10,28,51.50
2017,11,26,10,29,46.70
2017,11,26,10,30,46.70
2017,11,26,10,31,45.10
2017,11,26,10,32,48.30
2017,11,26,10,33,48.30
2017,11,26,10,34,49.90
2017,11,26,10,35,49.90
2017,11,26,10,36,54.70
2017,11,26,10,37,48.30
2017,11,26,10,38,46.70
2017,11,26,10,39,49.90
2017,11,26,10,40,46.70
2017,11,26,10,41,45.10
2017,11,26,10,42,46.70
2017,11,26,10,43,49.90
2017,11,26,10,44,49.90
2017,11,26,10,45,45.10
2017,11,26,10,46,51.50
2017,11,26,10,47,51.50
2017,11,26,10,48,45.10
2017,11,26,10,49,46.70
2017,11,26,10,50,49.90
2017,11,26,10,51,49.90
2017,11,26,10,52,46.70
2017,11,26,10,53,45.10
2017,11,26,10,54,46.70
2017,11,26,10,55,48.30
2017,11,26,10,56,49.90
2017,11,26,10,57,49.90
2017,11,26,10,58,49.90
2017,11,26,10,59,45.10
2017,11,26,11,00,41.80
2017,11,26,11,01,48.30
2017,11,26,11,02,51.50
2017,11,26,11,03,48.30
2017,11,26,11,04,51.50
2017,11,26,11,05,46.70
2017,11,26,11,06,51.50
2017,11,26,11,07,51.50
2017,11,26,11,08,48.30
2017,11,26,11,09,53.10
2017,11,26,11,10,45.10
2017,11,26,11,11,53.10
2017,11,26,11,12,46.70
2017,11,26,11,13,41.80
2017,11,26,11,14,48.30
2017,11,26,11,15,54.70
2017,11,26,11,16,48.30
2017,11,26,11,17,43.50
2017,11,26,11,18,45.10
2017,11,26,11,19,62.70
2017,11,26,11,20,59.50
2017,11,26,11,21,56.30
2017,11,26,11,22,67.60
2017,11,26,11,23,54.70
2017,11,26,11,24,64.40
2017,11,26,11,25,53.10
2017,11,26,11,26,54.70
2017,11,26,11,27,62.70
2017,11,26,11,28,61.20
2017,11,26,11,29,61.20
2017,11,26,11,30,57.90
2017,11,26,11,31,56.30
2017,11,26,11,32,56.30
2017,11,26,11,33,54.70
2017,11,26,11,34,70.80
2017,11,26,11,35,59.50
2017,11,26,11,36,57.90
2017,11,26,11,37,57.90
2017,11,26,11,38,53.10
2017,11,26,11,39,53.10
2017,11,26,11,40,46.70
2017,11,26,11,41,51.50
2017,11,26,11,42,49.90
2017,11,26,11,43,51.50
2017,11,26,11,44,46.70
2017,11,26,11,45,43.50
2017,11,26,11,46,48.30
2017,11,26,11,47,48.30
2017,11,26,11,48,51.50
2017,11,26,11,49,54.70
2017,11,26,11,50,51.50
2017,11,26,11,51,56.30
2017,11,26,11,52,49.90
2017,11,26,11,53,48.30
2017,11,26,11,54,48.30
2017,11,26,11,55,53.10
2017,11,26,11,56,46.70
2017,11,26,11,57,51.50
2017,11,26,11,58,45.10
2017,11,26,11,59,48.30
2017,11,26,12,00,43.50
2017,11,26,12,01,48.30
2017,11,26,12,02,51.50
2017,11,26,12,03,53.10
2017,11,26,12,04,54.70
2017,11,26,12,05,51.50
2017,11,26,12,06,57.90
2017,11,26,12,07,51.50
2017,11,26,12,08,53.10
2017,11,26,12,09,53.10
2017,11,26,12,10,53.10
2017,11,26,12,11,53.10
2017,11,26,12,12,51.50
2017,11,26,12,13,54.70
2017,11,26,12,14,49.90
2017,11,26,12,15,51.50
2017,11,26,12,16,49.90
2017,11,26,12,17,48.30
2017,11,26,12,18,56.30
2017,11,26,12,19,59.50
2017,11,26,12,20,51.50
2017,11,26,12,21,56.30
2017,11,26,12,22,53.10
2017,11,26,12,23,51.50
2017,11,26,12,24,53.10
2017,11,26,12,25,51.50
2017,11,26,12,26,57.90
2017,11,26,12,27,56.30
2017,11,26,12,28,45.10
2017,11,26,12,29,49.90
2017,11,26,12,30,46.70
2017,11,26,12,31,51.50
2017,11,26,12,32,51.50
2017,11,26,12,33,48.30
2017,11,26,12,34,51.50
2017,11,26,12,35,56.30
2017,11,26,12,36,51.50
2017,11,26,12,37,49.90
2017,11,26,12,38,49.90
2017,11,26,12,39,48.30
2017,11,26,12,40,46.70
2017,11,26,12,41,38.60
2017,11,26,12,42,41.80
2017,11,26,12,43,48.30
2017,11,26,12,44,45.10
2017,11,26,12,45,49.90
2017,11,26,12,46,46.70
2017,11,26,12,47,46.70
2017,11,26,12,48,48.30
2017,11,26,12,49,45.10
2017,11,26,12,50,51.50
2017,11,26,12,51,41.80
2017,11,26,12,52,46.70
2017,11,26,12,53,46.70
2017,11,26,12,54,41.80
2017,11,26,12,55,43.50
2017,11,26,12,56,48.30
2017,11,26,12,57,45.10
2017,11,26,12,58,46.70
2017,11,26,12,59,48.30
2017,11,26,13,00,45.10
2017,11,26,13,01,45.10
2017,11,26,13,02,43.50
2017,11,26,13,03,45.10
2017,11,26,13,04,45.10
2017,11,26,13,05,40.20
2017,11,26,13,06,43.50
2017,11,26,13,07,40.20
2017,11,26,13,08,43.50
2017,11,26,13,09,38.60
2017,11,26,13,10,35.40
2017,11,26,13,11,45.10
2017,11,26,13,12,40.20
2017,11,26,13,13,43.50
2017,11,26,13,14,41.80
2017,11,26,13,15,45.10
2017,11,26,13,16,38.60
2017,11,26,13,17,38.60
2017,11,26,13,18,38.60
2017,11,26,13,19,38.60
2017,11,26,13,20,40.20
2017,11,26,13,21,35.40
2017,11,26,13,22,40.20
2017,11,26,13,23,45.10
2017,11,26,13,24,41.80
2017,11,26,13,25,43.50
2017,11,26,13,26,40.20
2017,11,26,13,27,41.80
2017,11,26,13,28,41.80
2017,11,26,13,29,38.60
2017,11,26,13,30,37.00
2017,11,26,13,31,43.50
2017,11,26,13,32,38.60
2017,11,26,13,33,41.80
2017,11,26,13,34,33.80
2017,11,26,13,35,33.80
2017,11,26,13,36,37.00
2017,11,26,13,37,32.20
2017,11,26,13,38,35.40
2017,11,26,13,39,33.80
2017,11,26,13,40,45.10
2017,11,26,13,41,38.60
2017,11,26,13,42,38.60
2017,11,26,13,43,37.00
2017,11,26,13,44,37.00
2017,11,26,13,45,33.80
2017,11,26,13,46,33.80
2017,11,26,13,47,37.00
2017,11,26,13,48,46.70
2017,11,26,13,49,43.50
2017,11,26,13,50,33.80
2017,11,26,13,51,38.60
2017,11,26,13,52,43.50
2017,11,26,13,53,46.70
2017,11,26,13,54,41.80
2017,11,26,13,55,38.60
2017,11,26,13,56,41.80
2017,11,26,13,57,49.90
2017,11,26,13,58,48.30
2017,11,26,13,59,46.70
2017,11,26,14,00,48.30
2017,11,26,14,01,46.70
2017,11,26,14,02,49.90
2017,11,26,14,03,48.30
2017,11,26,14,04,45.10
2017,11,26,14,05,43.50
2017,11,26,14,06,41.80
2017,11,26,14,07,41.80
2017,11,26,14,08,43.50
2017,11,26,14,09,40.20
2017,11,26,14,10,45.10
2017,11,26,14,11,49.90
2017,11,26,14,12,43.50
2017,11,26,14,13,40.20
2017,11,26,14,14,46.70
2017,11,26,14,15,43.50
2017,11,26,14,16,43.50
2017,11,26,14,17,40.20
2017,11,26,14,18,43.50
2017,11,26,14,19,41.80
2017,11,26,14,20,38.60
2017,11,26,14,21,37.00
2017,11,26,14,22,35.40
2017,11,26,14,23,38.60
2017,11,26,14,24,38.60
2017,11,26,14,25,33.80
2017,11,26,14,26,38.60
2017,11,26,14,27,38.60
2017,11,26,14,28,38.60
2017,11,26,14,29,35.40
2017,11,26,14,30,38.60
2017,11,26,14,31,40.20
2017,11,26,14,32,40.20
2017,11,26,14,33,40.20
2017,11,26,14,34,43.50
2017,11,26,14,35,38.60
2017,11,26,14,36,37.00
2017,11,26,14,37,40.20
2017,11,26,14,38,35.40
2017,11,26,14,39,40.20
2017,11,26,14,40,37.00
2017,11,26,14,41,37.00
2017,11,26,14,42,35.40
2017,11,26,14,43,35.40
2017,11,26,14,44,37.00
2017,11,26,14,45,40.20
2017,11,26,14,46,35.40
2017,11,26,14,47,33.80
2017,11,26,14,48,32.20
2017,11,26,14,49,32.20
2017,11,26,14,50,32.20
2017,11,26,14,51,30.60
2017,11,26,14,52,27.40
2017,11,26,14,53,27.40
2017,11,26,14,54,27.40
2017,11,26,14,55,25.70
2017,11,26,14,56,30.60
2017,11,26,14,57,27.40
2017,11,26,14,58,25.70
2017,11,26,14,59,27.40
2017,11,26,15,00,27.40
2017,11,26,15,01,27.40
2017,11,26,15,02,29.00
2017,11,26,15,03,25.70
2017,11,26,15,04,20.90
2017,11,26,15,05,29.00
2017,11,26,15,06,27.40
2017,11,26,15,07,33.80
2017,11,26,15,08,29.00
2017,11,26,15,09,27.40
2017,11,26,15,10,30.60
2017,11,26,15,11,32.20
2017,11,26,15,12,29.00
2017,11,26,15,13,32.20
2017,11,26,15,14,29.00
2017,11,26,15,15,32.20
2017,11,26,15,16,32.20
2017,11,26,15,17,30.60
2017,11,26,15,18,27.40
2017,11,26,15,19,29.00
2017,11,26,15,20,25.70
2017,11,26,15,21,25.70
2017,11,26,15,22,24.20
2017,11,26,15,23,27.40
2017,11,26,15,24,24.20
2017,11,26,15,25,22.50
2017,11,26,15,26,19.30
2017,11,26,15,27,20.90
2017,11,26,15,28,20.90
2017,11,26,15,29,24.20
2017,11,26,15,30,27.40
2017,11,26,15,31,29.00
2017,11,26,15,32,30.60
2017,11,26,15,33,27.40
2017,11,26,15,34,32.20
2017,11,26,15,35,30.60
2017,11,26,15,36,25.70
2017,11,26,15,37,24.20
2017,11,26,15,38,29.00
2017,11,26,15,39,29.00
2017,11,26,15,40,30.60
2017,11,26,15,41,27.40
2017,11,26,15,42,27.40
2017,11,26,15,43,25.70
2017,11,26,15,44,24.20
2017,11,26,15,45,24.20
2017,11,26,15,46,25.70
2017,11,26,15,47,22.50
2017,11,26,15,48,22.50
2017,11,26,15,49,27.40
2017,11,26,15,50,24.20
2017,11,26,15,51,22.50
2017,11,26,15,52,25.70
2017,11,26,15,53,22.50
2017,11,26,15,54,22.50
2017,11,26,15,55,24.20
2017,11,26,15,56,24.20
2017,11,26,15,57,22.50
2017,11,26,15,58,24.20
2017,11,26,15,59,27.40
2017,11,26,16,00,25.70
2017,11,26,16,01,27.40
2017,11,26,16,02,29.00
2017,11,26,16,03,27.40
2017,11,26,16,04,24.20
2017,11,26,16,05,24.20
2017,11,26,16,06,24.20
2017,11,26,16,07,24.20
2017,11,26,16,08,22.50
2017,11,26,16,09,20.90
2017,11,26,16,10,20.90
2017,11,26,16,11,20.90
2017,11,26,16,12,20.90
2017,11,26,16,13,19.30
2017,11,26,16,14,19.30
2017,11,26,16,15,19.30
2017,11,26,16,16,20.90
2017,11,26,16,17,19.30
2017,11,26,16,18,19.30
2017,11,26,16,19,19.30
2017,11,26,16,20,16.10
2017,11,26,16,21,17.70
2017,11,26,16,22,17.70
2017,11,26,16,23,17.70
2017,11,26,16,24,20.90
2017,11,26,16,25,19.30
2017,11,26,16,26,16.10
2017,11,26,16,27,16.10
2017,11,26,16,28,17.70
2017,11,26,16,29,17.70
2017,11,26,16,30,22.50
2017,11,26,16,31,24.20
2017,11,26,16,32,25.70
2017,11,26,16,33,40.20
2017,11,26,16,34,45.10
2017,11,26,16,35,66.00
2017,11,26,16,36,61.20
2017,11,26,16,37,54.70
2017,11,26,16,38,49.90
2017,11,26,16,39,49.90
2017,11,26,16,40,41.80
2017,11,26,16,41,48.30
2017,11,26,16,42,51.50
2017,11,26,16,43,56.30
2017,11,26,16,44,54.70
2017,11,26,16,45,53.10
2017,11,26,16,46,45.10
2017,11,26,16,47,57.90
2017,11,26,16,48,51.50
2017,11,26,16,49,61.20
2017,11,26,16,50,54.70
2017,11,26,16,51,51.50
2017,11,26,16,52,41.80
2017,11,26,16,53,32.20
2017,11,26,16,54,29.00
2017,11,26,16,55,24.20
2017,11,26,16,56,20.90
2017,11,26,16,57,19.30
2017,11,26,16,58,24.20
2017,11,26,16,59,20.90
2017,11,26,17,00,20.90
2017,11,26,17,01,22.50
2017,11,26,17,02,22.50
2017,11,26,17,03,22.50
2017,11,26,17,04,24.20
2017,11,26,17,05,24.20
2017,11,26,17,06,25.70
2017,11,26,17,07,27.40
2017,11,26,17,08,27.40
2017,11,26,17,09,24.20
2017,11,26,17,10,24.20
2017,11,26,17,11,24.20
2017,11,26,17,12,24.20
2017,11,26,17,13,20.90
2017,11,26,17,14,20.90
2017,11,26,17,15,25.70
2017,11,26,17,16,27.40
2017,11,26,17,17,29.00
2017,11,26,17,18,29.00
2017,11,26,17,19,25.70
2017,11,26,17,20,27.40
2017,11,26,17,21,27.40
2017,11,26,17,22,29.00
2017,11,26,17,23,24.20
2017,11,26,17,24,25.70
2017,11,26,17,25,20.90
2017,11,26,17,26,22.50
2017,11,26,17,27,25.70
2017,11,26,17,28,22.50
2017,11,26,17,29,20.90